Flag for Switzerland Weather past 2 weeks in Renens, Vaud, Switzerland

Now
64 °F

Mild.


Feels Like: 64 °F
Forecast: 53 / 79 °F
Wind: No wind

Location: Aigle

Current Time: Aug 1, 2015 at 11:24:14 PM

Latest Report: Aug 1, 2015 at 9:00 PM


Visibility: N/A

Pressure: 30.03 "Hg

Humidity: 98%

Dew point: 63 °F

Location of RenensLocation

Historic Weather in Renens — Graph

°F

Renens temperature yesterday

Maximum temperature yesterday: 76 °F (at 4:00 PM)
Minimum temperature yesterday: 49 °F (at 7:00 AM)
Average temperature yesterday: 63 °F

Past Weeks' High & Low Weather Summary

 TemperatureHumidityPressure
High94 °F (Jul 21, 4:00 PM)98% (Jul 24, 5:00 AM)30.21 "Hg (Jul 24, 5:00 AM)
Low49 °F (Jul 31, 7:00 AM)28% (Jul 20, 6:00 PM)29.71 "Hg (Jul 24, 4:00 PM)
Average70 °F68%29.93 "Hg
* Reported Jul 17 9:00 PM — Aug 1 9:00 PM, Renens, Weather by CustomWeather, © 2015

Note: Actual official high and low records may vary slightly from our data, if they occured in-between our weather recording intervals... More about our weather records

Advertising

Renens weather history for previous 24 hours

 ConditionsComfort  
Time TempWeatherWind HumidityBarometerVisibility
9:00 PM
Sat, Aug 1
64 °FMild.No wind98%30.03 "HgN/A
7:00 PM65 °FMild.1 mph92%30.00 "HgN/A
6:00 PM65 °FMild.2 mph87%30.00 "HgN/A
5:00 PM65 °FOvercast.2 mph86%29.99 "Hg7 mi
4:00 PM65 °FMild.3 mph86%29.98 "HgN/A
3:00 PM65 °FMild.5 mph78%29.98 "HgN/A
2:00 PM66 °FOvercast.5 mph83%29.98 "Hg11 mi
1:00 PM67 °FMild.1 mph78%29.96 "HgN/A
12:00 PM65 °FMild.1 mph86%29.97 "HgN/A
11:00 AM63 °FOvercast.3 mph88%29.98 "Hg6 mi
10:00 AM62 °FCool.3 mph93%30.00 "HgN/A
9:00 AM61 °FCool.2 mph95%29.98 "HgN/A
8:00 AM60 °FHeavy rain. Overcast.2 mph96%29.97 "Hg3 mi
7:00 AM60 °FCool.1 mph98%29.98 "HgN/A
4:00 AM63 °FMild.No wind93%29.88 "HgN/A
3:00 AM62 °FCool.1 mph93%29.88 "HgN/A
2:00 AM62 °FMild.1 mph94%29.90 "HgN/A
1:00 AM64 °FMild.3 mph81%29.90 "HgN/A
12:00 AM64 °FMild.2 mph90%29.91 "HgN/A
11:00 PM
Fri, Jul 31
64 °FMild.2 mph92%29.90 "HgN/A
Weather by CustomWeather, © 2015

See weather overviewHow to use our weather pages